Time,TemperatureF,DewpointF,PressureIn,WindDirection,WindDirectionDegrees,WindSpeedMPH,WindSpeedGustMPH,Humidity,HourlyPrecipIn,Conditions,Clouds,dailyrainin,SolarRadiationWatts/m^2,SoftwareType,DateUTC
2013-03-01 00:01:00,48.0,8.0,-100.00,SW,232,5.0,10.0,19,0.00,,,0.00,0.000000,,2013-03-01 08:01:00,
2013-03-01 00:11:00,48.0,8.0,-100.00,SW,232,5.0,10.0,19,0.00,,,0.00,0.000000,,2013-03-01 08:11:00,
2013-03-01 00:22:00,48.0,8.0,-100.00,SW,232,5.0,10.0,19,0.00,,,0.00,0.000000,,2013-03-01 08:22:00,
2013-03-01 00:31:00,48.0,8.0,-100.00,SW,232,5.0,10.0,19,0.00,,,0.00,0.000000,,2013-03-01 08:31:00,
2013-03-01 00:53:00,48.0,8.0,-100.00,SW,234,4.0,9.0,19,0.00,,,0.00,0.000000,,2013-03-01 08:53:00,
2013-03-01 01:02:00,48.0,8.0,-100.00,SW,234,4.0,9.0,19,0.00,,,0.00,0.000000,,2013-03-01 09:02:00,
2013-03-01 01:11:00,48.0,8.0,-100.00,SW,234,4.0,9.0,19,0.00,,,0.00,0.000000,,2013-03-01 09:11:00,
2013-03-01 01:21:00,48.0,8.0,-100.00,SW,234,4.0,9.0,19,0.00,,,0.00,0.000000,,2013-03-01 09:21:00,
2013-03-01 01:31:00,48.0,8.0,-100.00,SW,234,4.0,9.0,19,0.00,,,0.00,0.000000,,2013-03-01 09:31:00,
2013-03-01 01:52:00,47.0,6.0,-100.00,WSW,242,3.0,8.0,18,0.00,,,0.00,0.000000,,2013-03-01 09:52:00,
2013-03-01 02:01:00,47.0,6.0,-100.00,WSW,242,3.0,8.0,18,0.00,,,0.00,0.000000,,2013-03-01 10:01:00,
2013-03-01 02:11:00,47.0,6.0,-100.00,WSW,242,3.0,8.0,18,0.00,,,0.00,0.000000,,2013-03-01 10:11:00,
2013-03-01 02:21:00,47.0,6.0,-100.00,WSW,242,3.0,8.0,18,0.00,,,0.00,0.000000,,2013-03-01 10:21:00,
2013-03-01 02:31:00,47.0,6.0,-100.00,WSW,242,3.0,8.0,18,0.00,,,0.00,0.000000,,2013-03-01 10:31:00,
2013-03-01 02:52:00,51.0,6.0,-100.00,NW,320,4.0,10.0,16,0.00,,,0.00,0.000000,,2013-03-01 10:52:00,
2013-03-01 03:01:00,51.0,6.0,-100.00,NW,320,4.0,10.0,16,0.00,,,0.00,0.000000,,2013-03-01 11:01:00,
2013-03-01 03:32:00,51.0,4.0,-100.00,NNW,330,2.0,11.0,14,0.00,,,0.00,0.000000,,2013-03-01 11:32:00,
2013-03-01 03:52:00,51.0,4.0,-100.00,NNW,330,2.0,11.0,14,0.00,,,0.00,0.000000,,2013-03-01 11:52:00,
2013-03-01 04:32:00,49.0,5.0,-100.00,NW,320,5.0,14.0,16,-99.99,,,0.00,0.000000,,2013-03-01 12:32:00,
2013-03-01 04:52:00,49.0,5.0,-100.00,NW,320,5.0,14.0,16,-99.99,,,0.00,0.000000,,2013-03-01 12:52:00,
2013-03-01 05:01:00,49.0,5.0,-100.00,NW,320,5.0,14.0,16,-99.99,,,0.00,0.000000,,2013-03-01 13:01:00,
2013-03-01 05:11:00,49.0,5.0,-100.00,NW,320,5.0,14.0,16,-99.99,,,0.00,0.000000,,2013-03-01 13:11:00,
2013-03-01 05:21:00,49.0,5.0,-100.00,NW,320,5.0,14.0,16,-99.99,,,0.00,0.000000,,2013-03-01 13:21:00,
2013-03-01 05:52:00,51.0,9.0,-100.00,SW,225,1.0,12.0,18,0.00,,,0.00,0.000000,,2013-03-01 13:52:00,
2013-03-01 06:01:00,51.0,9.0,-100.00,SW,225,1.0,12.0,18,0.00,,,0.00,0.000000,,2013-03-01 14:01:00,
2013-03-01 06:52:00,51.0,8.0,-100.00,SSW,213,3.0,16.0,17,0.00,,,-99.99,1.000000,,2013-03-01 14:52:00,
2013-03-01 07:01:00,51.0,8.0,-100.00,SSW,213,3.0,16.0,17,0.00,,,-99.99,1.000000,,2013-03-01 15:01:00,
2013-03-01 07:21:00,51.0,8.0,-100.00,SSW,213,3.0,16.0,17,0.00,,,-99.99,1.000000,,2013-03-01 15:21:00,
2013-03-01 07:31:00,51.0,8.0,-100.00,SSW,213,3.0,16.0,17,0.00,,,-99.99,1.000000,,2013-03-01 15:31:00,
2013-03-01 07:52:00,53.0,9.0,-100.00,NNW,331,3.0,16.0,17,0.00,,,0.00,103.000000,,2013-03-01 15:52:00,
2013-03-01 08:01:00,53.0,9.0,-100.00,NNW,331,3.0,16.0,17,0.00,,,0.00,103.000000,,2013-03-01 16:01:00,
2013-03-01 08:11:00,53.0,9.0,-100.00,NNW,331,3.0,16.0,17,0.00,,,0.00,103.000000,,2013-03-01 16:11:00,
2013-03-01 08:21:00,53.0,9.0,-100.00,NNW,331,3.0,16.0,17,0.00,,,0.00,103.000000,,2013-03-01 16:21:00,
2013-03-01 08:31:00,53.0,9.0,-100.00,NNW,331,3.0,16.0,17,0.00,,,0.00,103.000000,,2013-03-01 16:31:00,
2013-03-01 08:52:00,55.0,11.0,-100.00,NE,41,4.0,18.0,17,0.00,,,0.00,338.000000,,2013-03-01 16:52:00,
2013-03-01 09:01:00,55.0,11.0,-100.00,NE,41,4.0,18.0,17,0.00,,,0.00,338.000000,,2013-03-01 17:01:00,
2013-03-01 09:11:00,55.0,11.0,-100.00,NE,41,4.0,18.0,17,0.00,,,0.00,338.000000,,2013-03-01 17:11:00,
2013-03-01 09:21:00,55.0,11.0,-100.00,NE,41,4.0,18.0,17,0.00,,,0.00,338.000000,,2013-03-01 17:21:00,
2013-03-01 09:31:00,55.0,11.0,-100.00,NE,41,4.0,18.0,17,0.00,,,0.00,338.000000,,2013-03-01 17:31:00,
2013-03-01 09:52:00,56.0,13.0,-100.00,ENE,67,6.0,19.0,18,0.00,,,0.00,569.000000,,2013-03-01 17:52:00,
2013-03-01 10:01:00,56.0,13.0,-100.00,ENE,67,6.0,19.0,18,0.00,,,0.00,569.000000,,2013-03-01 18:01:00,
2013-03-01 10:12:00,56.0,13.0,-100.00,ENE,67,6.0,19.0,18,0.00,,,0.00,569.000000,,2013-03-01 18:12:00,
2013-03-01 10:22:00,56.0,13.0,-100.00,ENE,67,6.0,19.0,18,0.00,,,0.00,569.000000,,2013-03-01 18:22:00,
2013-03-01 10:31:00,56.0,13.0,-100.00,ENE,67,6.0,19.0,18,0.00,,,0.00,569.000000,,2013-03-01 18:31:00,
2013-03-01 10:52:00,57.0,15.0,-100.00,NE,51,9.0,17.0,19,0.00,,,0.00,745.000000,,2013-03-01 18:52:00,
2013-03-01 11:01:00,57.0,15.0,-100.00,NE,51,9.0,17.0,19,0.00,,,0.00,745.000000,,2013-03-01 19:01:00,
2013-03-01 11:11:00,57.0,15.0,-100.00,NE,51,9.0,17.0,19,0.00,,,0.00,745.000000,,2013-03-01 19:11:00,
2013-03-01 11:21:00,57.0,15.0,-100.00,NE,51,9.0,17.0,19,0.00,,,0.00,745.000000,,2013-03-01 19:21:00,
2013-03-01 11:31:00,57.0,15.0,-100.00,NE,51,9.0,17.0,19,0.00,,,0.00,745.000000,,2013-03-01 19:31:00,
2013-03-01 11:52:00,60.0,18.0,-100.00,NE,41,8.0,17.0,19,0.00,,,0.00,879.000000,,2013-03-01 19:52:00,
2013-03-01 12:01:00,60.0,18.0,-100.00,NE,41,8.0,17.0,19,0.00,,,0.00,879.000000,,2013-03-01 20:01:00,
2013-03-01 12:11:00,60.0,18.0,-100.00,NE,41,8.0,17.0,19,0.00,,,0.00,879.000000,,2013-03-01 20:11:00,
2013-03-01 12:21:00,60.0,18.0,-100.00,NE,41,8.0,17.0,19,0.00,,,0.00,879.000000,,2013-03-01 20:21:00,
2013-03-01 12:31:00,60.0,18.0,-100.00,NE,41,8.0,17.0,19,0.00,,,0.00,879.000000,,2013-03-01 20:31:00,
2013-03-01 12:52:00,61.0,16.0,-100.00,NE,37,6.0,19.0,17,0.00,,,0.00,927.000000,,2013-03-01 20:52:00,
2013-03-01 13:01:00,61.0,16.0,-100.00,NE,37,6.0,19.0,17,0.00,,,0.00,927.000000,,2013-03-01 21:01:00,
2013-03-01 13:11:00,61.0,16.0,-100.00,NE,37,6.0,19.0,17,0.00,,,0.00,927.000000,,2013-03-01 21:11:00,
2013-03-01 13:21:00,61.0,16.0,-100.00,NE,37,6.0,19.0,17,0.00,,,0.00,927.000000,,2013-03-01 21:21:00,
2013-03-01 13:31:00,61.0,16.0,-100.00,NE,37,6.0,19.0,17,0.00,,,0.00,927.000000,,2013-03-01 21:31:00,
2013-03-01 13:52:00,63.0,16.0,-100.00,NE,48,8.0,18.0,16,0.00,,,0.00,899.000000,,2013-03-01 21:52:00,
2013-03-01 14:01:00,63.0,16.0,-100.00,NE,48,8.0,18.0,16,0.00,,,0.00,899.000000,,2013-03-01 22:01:00,
2013-03-01 14:11:00,63.0,16.0,-100.00,NE,48,8.0,18.0,16,0.00,,,0.00,899.000000,,2013-03-01 22:11:00,
2013-03-01 14:21:00,63.0,16.0,-100.00,NE,48,8.0,18.0,16,0.00,,,0.00,899.000000,,2013-03-01 22:21:00,
2013-03-01 14:31:00,63.0,16.0,-100.00,NE,48,8.0,18.0,16,0.00,,,0.00,899.000000,,2013-03-01 22:31:00,
2013-03-01 14:52:00,64.0,15.0,-100.00,SE,136,8.0,14.0,15,0.00,,,0.00,790.000000,,2013-03-01 22:52:00,
2013-03-01 15:01:00,64.0,15.0,-100.00,SE,136,8.0,14.0,15,0.00,,,0.00,790.000000,,2013-03-01 23:01:00,
2013-03-01 15:11:00,64.0,15.0,-100.00,SE,136,8.0,14.0,15,0.00,,,0.00,790.000000,,2013-03-01 23:11:00,
2013-03-01 15:21:00,64.0,15.0,-100.00,SE,136,8.0,14.0,15,0.00,,,0.00,790.000000,,2013-03-01 23:21:00,
2013-03-01 15:31:00,64.0,15.0,-100.00,SE,136,8.0,14.0,15,0.00,,,0.00,790.000000,,2013-03-01 23:31:00,
2013-03-01 15:52:00,60.0,14.0,-100.00,SE,143,9.0,16.0,16,0.00,,,0.00,589.000000,,2013-03-01 23:52:00,
2013-03-01 16:01:00,60.0,14.0,-100.00,SE,143,9.0,16.0,16,0.00,,,0.00,589.000000,,2013-03-02 00:01:00,
2013-03-01 16:11:00,60.0,14.0,-100.00,SE,143,9.0,16.0,16,0.00,,,0.00,589.000000,,2013-03-02 00:11:00,
2013-03-01 16:21:00,60.0,14.0,-100.00,SE,143,9.0,16.0,16,0.00,,,0.00,589.000000,,2013-03-02 00:21:00,
2013-03-01 16:31:00,60.0,14.0,-100.00,SE,143,9.0,16.0,16,0.00,,,0.00,589.000000,,2013-03-02 00:31:00,
2013-03-01 16:52:00,57.0,14.0,-100.00,SSE,153,6.0,11.0,18,0.00,,,0.00,158.000000,,2013-03-02 00:52:00,
2013-03-01 17:01:00,57.0,14.0,-100.00,SSE,153,6.0,11.0,18,0.00,,,0.00,158.000000,,2013-03-02 01:01:00,
2013-03-01 17:11:00,57.0,14.0,-100.00,SSE,153,6.0,11.0,18,0.00,,,0.00,158.000000,,2013-03-02 01:11:00,
2013-03-01 17:21:00,57.0,14.0,-100.00,SSE,153,6.0,11.0,18,0.00,,,0.00,158.000000,,2013-03-02 01:21:00,
2013-03-01 17:31:00,57.0,14.0,-100.00,SSE,153,6.0,11.0,18,0.00,,,0.00,158.000000,,2013-03-02 01:31:00,
2013-03-01 17:52:00,52.0,12.0,-100.00,SSW,204,2.0,7.0,20,0.00,,,-99.99,15.000000,,2013-03-02 01:52:00,
2013-03-01 18:01:00,52.0,12.0,-100.00,SSW,204,2.0,7.0,20,0.00,,,-99.99,15.000000,,2013-03-02 02:01:00,
2013-03-01 18:11:00,52.0,12.0,-100.00,SSW,204,2.0,7.0,20,0.00,,,-99.99,15.000000,,2013-03-02 02:11:00,
2013-03-01 18:21:00,52.0,12.0,-100.00,SSW,204,2.0,7.0,20,0.00,,,-99.99,15.000000,,2013-03-02 02:21:00,
2013-03-01 18:31:00,52.0,12.0,-100.00,SSW,204,2.0,7.0,20,0.00,,,-99.99,15.000000,,2013-03-02 02:31:00,
2013-03-01 18:32:00,52.0,12.0,-100.00,SW,236,6.0,8.0,20,0.00,,,0.00,2.000000,,2013-03-02 02:32:00,
2013-03-01 18:52:00,52.0,12.0,-100.00,SW,236,6.0,8.0,20,0.00,,,0.00,2.000000,,2013-03-02 02:52:00,
2013-03-01 19:01:00,52.0,12.0,-100.00,SW,236,6.0,8.0,20,0.00,,,0.00,2.000000,,2013-03-02 03:01:00,
2013-03-01 19:11:00,52.0,12.0,-100.00,SW,236,6.0,8.0,20,0.00,,,0.00,2.000000,,2013-03-02 03:11:00,
2013-03-01 19:21:00,52.0,12.0,-100.00,SW,236,6.0,8.0,20,0.00,,,0.00,2.000000,,2013-03-02 03:21:00,
2013-03-01 19:52:00,50.0,14.0,-100.00,WSW,242,7.0,10.0,23,0.00,,,0.00,0.000000,,2013-03-02 03:52:00,
2013-03-01 20:01:00,50.0,14.0,-100.00,WSW,242,7.0,10.0,23,0.00,,,0.00,0.000000,,2013-03-02 04:01:00,
2013-03-01 20:11:00,50.0,14.0,-100.00,WSW,242,7.0,10.0,23,0.00,,,0.00,0.000000,,2013-03-02 04:11:00,
2013-03-01 20:21:00,50.0,14.0,-100.00,WSW,242,7.0,10.0,23,0.00,,,0.00,0.000000,,2013-03-02 04:21:00,
2013-03-01 20:31:00,50.0,14.0,-100.00,WSW,242,7.0,10.0,23,0.00,,,0.00,0.000000,,2013-03-02 04:31:00,
2013-03-01 20:52:00,50.0,16.0,-100.00,WSW,239,7.0,10.0,25,0.00,,,0.00,0.000000,,2013-03-02 04:52:00,
2013-03-01 21:01:00,50.0,16.0,-100.00,WSW,239,7.0,10.0,25,0.00,,,0.00,0.000000,,2013-03-02 05:01:00,
2013-03-01 21:12:00,50.0,16.0,-100.00,WSW,239,7.0,10.0,25,0.00,,,0.00,0.000000,,2013-03-02 05:12:00,
2013-03-01 21:22:00,50.0,16.0,-100.00,WSW,239,7.0,10.0,25,0.00,,,0.00,0.000000,,2013-03-02 05:22:00,
2013-03-01 21:31:00,50.0,16.0,-100.00,WSW,239,7.0,10.0,25,0.00,,,0.00,0.000000,,2013-03-02 05:31:00,
2013-03-01 21:52:00,50.0,16.0,-100.00,WSW,241,7.0,10.0,25,0.00,,,0.00,0.000000,,2013-03-02 05:52:00,
2013-03-01 22:01:00,50.0,16.0,-100.00,WSW,241,7.0,10.0,25,0.00,,,0.00,0.000000,,2013-03-02 06:01:00,
2013-03-01 22:11:00,50.0,16.0,-100.00,WSW,241,7.0,10.0,25,0.00,,,0.00,0.000000,,2013-03-02 06:11:00,
2013-03-01 22:21:00,50.0,16.0,-100.00,WSW,241,7.0,10.0,25,0.00,,,0.00,0.000000,,2013-03-02 06:21:00,
2013-03-01 22:31:00,50.0,16.0,-100.00,WSW,241,7.0,10.0,25,0.00,,,0.00,0.000000,,2013-03-02 06:31:00,
2013-03-01 22:32:00,49.0,14.0,-100.00,WSW,245,6.0,11.0,24,0.00,,,0.00,0.000000,,2013-03-02 06:32:00,
2013-03-01 22:52:00,49.0,14.0,-100.00,WSW,245,6.0,11.0,24,0.00,,,0.00,0.000000,,2013-03-02 06:52:00,
2013-03-01 23:01:00,49.0,14.0,-100.00,WSW,245,6.0,11.0,24,0.00,,,0.00,0.000000,,2013-03-02 07:01:00,
2013-03-01 23:11:00,49.0,14.0,-100.00,WSW,245,6.0,11.0,24,0.00,,,0.00,0.000000,,2013-03-02 07:11:00,
2013-03-01 23:21:00,49.0,14.0,-100.00,WSW,245,6.0,11.0,24,0.00,,,0.00,0.000000,,2013-03-02 07:21:00,
2013-03-01 23:52:00,51.0,16.0,-100.00,WSW,252,5.0,9.0,24,0.00,,,0.00,0.000000,,2013-03-02 07:52:00,